| time (UTC) | temp F | wind direction | speed knots | gust knots | rain 1hr in | rain 24hr in | rain mn in | humidity % | barometer mb |
| 20260902113502 | 71 | 36 | 0.9 | 2.6 | 0.00 | 0.00 | 0.00 | 98 | 1018.0 |
| 20260902113008 | 71 | 36 | 0.9 | 2.6 | 0.00 | 0.00 | 0.00 | 98 | 1018.0 |
| 20260902112503 | 71 | 36 | 0.9 | 2.6 | 0.00 | 0.00 | 0.00 | 98 | 1017.9 |
| 20260902112003 | 71 | 38 | 0.9 | 2.6 | 0.00 | 0.00 | 0.00 | 97 | 1017.9 |
| 20260902111509 | 71 | 20 | 0.0 | 2.6 | 0.00 | 0.00 | 0.00 | 98 | 1017.8 |
| 20260902111002 | 71 | 39 | 0.0 | 1.7 | 0.00 | 0.00 | 0.00 | 97 | 1017.7 |
| 20260902110507 | 71 | 24 | 0.9 | 2.6 | 0.00 | 0.00 | 0.00 | 97 | 1017.6 |
| 20260902110008 | 71 | 24 | 0.0 | 2.6 | 0.00 | 0.00 | 0.00 | 97 | 1017.6 |
| 20260902105505 | 71 | 15 | 0.9 | 2.6 | 0.00 | 0.00 | 0.00 | 97 | 1017.5 |
| 20260902105003 | 71 | 349 | 0.9 | 2.6 | 0.00 | 0.00 | 0.00 | 97 | 1017.5 |
| 20260902104514 | 71 | 17 | 0.0 | 2.6 | 0.00 | 0.00 | 0.00 | 97 | 1017.5 |
| 20260902104006 | 71 | 15 | 0.9 | 2.6 | 0.00 | 0.00 | 0.00 | 97 | 1017.5 |
| 20260902103507 | 71 | 12 | 0.9 | 2.6 | 0.00 | 0.00 | 0.00 | 97 | 1017.4 |
| 20260902103015 | 71 | 46 | 0.9 | 2.6 | 0.00 | 0.00 | 0.00 | 97 | 1017.5 |
| 20260902102507 | 71 | 15 | 0.9 | 3.5 | 0.00 | 0.00 | 0.00 | 97 | 1017.5 |
| 20260902102005 | 71 | 13 | 0.9 | 3.5 | 0.00 | 0.00 | 0.00 | 97 | 1017.5 |
| 20260902101511 | 71 | 5 | 0.9 | 2.6 | 0.00 | 0.00 | 0.00 | 97 | 1017.5 |
| 20260902101007 | 71 | 22 | 0.9 | 2.6 | 0.00 | 0.00 | 0.00 | 97 | 1017.4 |
| 20260902100508 | 71 | 17 | 0.0 | 1.7 | 0.00 | 0.00 | 0.00 | 97 | 1017.5 |
| 20260902100011 | 71 | 17 | 0.0 | 1.7 | 0.00 | 0.00 | 0.00 | 97 | 1017.4 |
| 20260902095508 | 71 | 338 | 0.0 | 0.9 | 0.00 | 0.00 | 0.00 | 97 | 1017.5 |
| 20260902095007 | 71 | 338 | 0.0 | 2.6 | 0.00 | 0.00 | 0.00 | 97 | 1017.6 |
| 20260902094516 | 72 | 338 | 0.0 | 3.5 | 0.00 | 0.00 | 0.00 | 97 | 1017.6 |
| 20260902094009 | 72 | 20 | 0.0 | 3.5 | 0.00 | 0.00 | 0.00 | 97 | 1017.5 |
| 20260902093509 | 72 | 13 | 0.0 | 2.6 | 0.00 | 0.00 | 0.00 | 97 | 1017.6 |
| 20260902093017 | 72 | 5 | 0.9 | 3.5 | 0.00 | 0.00 | 0.00 | 97 | 1017.7 |
| 20260902092508 | 72 | 36 | 0.9 | 3.5 | 0.00 | 0.00 | 0.00 | 97 | 1017.7 |
| 20260902092008 | 72 | 30 | 0.9 | 3.5 | 0.00 | 0.00 | 0.00 | 97 | 1017.7 |
| 20260902091523 | 72 | 36 | 0.9 | 2.6 | 0.00 | 0.00 | 0.00 | 97 | 1017.8 |
| 20260902091008 | 72 | 13 | 0.9 | 2.6 | 0.00 | 0.00 | 0.00 | 97 | 1017.8 |
| 20260902090508 | 72 | 20 | 0.9 | 2.6 | 0.00 | 0.00 | 0.00 | 97 | 1017.7 |
| 20260902090020 | 72 | 17 | 0.9 | 3.5 | 0.00 | 0.00 | 0.00 | 97 | 1017.8 |
| 20260902085508 | 72 | 11 | 0.9 | 3.5 | 0.00 | 0.00 | 0.00 | 97 | 1017.8 |
| 20260902085008 | 72 | 329 | 0.9 | 3.5 | 0.00 | 0.00 | 0.00 | 97 | 1017.8 |
| 20260902084518 | 72 | 5 | 1.7 | 4.3 | 0.00 | 0.00 | 0.00 | 97 | 1017.8 |
| 20260902084009 | 72 | 19 | 0.9 | 4.3 | 0.00 | 0.00 | 0.00 | 97 | 1017.7 |
| 20260902083507 | 72 | 19 | 0.9 | 4.3 | 0.00 | 0.00 | 0.00 | 97 | 1017.6 |
| 20260902083030 | 72 | 14 | 1.7 | 4.3 | 0.00 | 0.00 | 0.00 | 97 | 1017.6 |
| 20260902082510 | 72 | 5 | 1.7 | 3.5 | 0.00 | 0.00 | 0.00 | 97 | 1017.6 |
| 20260902082010 | 72 | 32 | 0.9 | 3.5 | 0.00 | 0.00 | 0.00 | 97 | 1017.7 |
| 20260902081524 | 72 | 32 | 1.7 | 3.5 | 0.00 | 0.00 | 0.00 | 97 | 1017.6 |
| 20260902081010 | 73 | 31 | 1.7 | 3.5 | 0.00 | 0.00 | 0.00 | 97 | 1017.5 |
| 20260902080512 | 73 | 355 | 0.9 | 3.5 | 0.00 | 0.00 | 0.00 | 97 | 1017.5 |
| 20260902080030 | 73 | 352 | 0.9 | 3.5 | 0.00 | 0.00 | 0.00 | 97 | 1017.6 |
| 20260902075509 | 73 | 5 | 0.0 | 2.6 | 0.00 | 0.00 | 0.00 | 97 | 1017.6 |
| 20260902075010 | 73 | 348 | 0.9 | 3.5 | 0.00 | 0.00 | 0.00 | 97 | 1017.5 |
| 20260902074527 | 73 | 12 | 0.0 | 3.5 | 0.00 | 0.00 | 0.00 | 97 | 1017.5 |
| 20260902074009 | 73 | 19 | 0.9 | 4.3 | 0.00 | 0.00 | 0.00 | 97 | 1017.5 |
| 20260902073516 | 73 | 48 | 1.7 | 4.3 | 0.00 | 0.00 | 0.00 | 97 | 1017.6 |
| 20260902073025 | 73 | 17 | 0.9 | 4.3 | 0.00 | 0.00 | 0.00 | 97 | 1017.6 |
| 20260902072508 | 73 | 5 | 0.9 | 4.3 | 0.00 | 0.00 | 0.00 | 97 | 1017.5 |
| 20260902072008 | 73 | 5 | 0.0 | 3.5 | 0.00 | 0.00 | 0.00 | 97 | 1017.5 |
| 20260902071524 | 73 | 355 | 0.9 | 3.5 | 0.00 | 0.00 | 0.00 | 97 | 1017.6 |
| 20260902071009 | 73 | 5 | 0.9 | 3.5 | 0.00 | 0.00 | 0.00 | 97 | 1017.7 |
| 20260902070513 | 73 | 13 | 0.0 | 2.6 | 0.00 | 0.00 | 0.00 | 97 | 1017.7 |
| 20260902070027 | 73 | 352 | 0.0 | 2.6 | 0.00 | 0.00 | 0.00 | 97 | 1017.7 |
| 20260902065513 | 73 | 333 | 0.0 | 1.7 | 0.00 | 0.00 | 0.00 | 96 | 1017.7 |
| 20260902065008 | 73 | 333 | 0.0 | 2.6 | 0.00 | 0.00 | 0.00 | 96 | 1017.7 |
| 20260902064526 | 73 | 10 | 0.9 | 2.6 | 0.00 | 0.00 | 0.00 | 96 | 1017.7 |
| 20260902064009 | 73 | 355 | 0.9 | 2.6 | 0.00 | 0.00 | 0.00 | 96 | 1017.8 |
| 20260902063517 | 73 | 346 | 0.0 | 1.7 | 0.00 | 0.00 | 0.00 | 96 | 1017.9 |
| 20260902063023 | 73 | 329 | 0.0 | 2.6 | 0.00 | 0.00 | 0.00 | 96 | 1017.9 |
| 20260902062507 | 73 | 34 | 0.0 | 3.5 | 0.00 | 0.00 | 0.00 | 96 | 1017.8 |
| 20260902062010 | 73 | 308 | 0.0 | 3.5 | 0.00 | 0.00 | 0.00 | 96 | 1017.8 |
| 20260902061521 | 73 | 360 | 0.0 | 2.6 | 0.00 | 0.00 | 0.00 | 96 | 1017.9 |
| 20260902061010 | 73 | 30 | 0.9 | 2.6 | 0.00 | 0.00 | 0.00 | 96 | 1017.9 |
| 20260902060510 | 73 | 327 | 0.0 | 1.7 | 0.00 | 0.00 | 0.00 | 96 | 1017.9 |
| 20260902060025 | 73 | 22 | 0.0 | 2.6 | 0.00 | 0.00 | 0.00 | 96 | 1018.0 |
| 20260902055508 | 73 | 346 | 0.9 | 2.6 | 0.00 | 0.00 | 0.00 | 96 | 1017.9 |
| 20260902055012 | 73 | 346 | 0.9 | 2.6 | 0.00 | 0.00 | 0.00 | 96 | 1017.9 |
| 20260902054537 | 73 | 346 | 0.0 | 1.7 | 0.00 | 0.00 | 0.00 | 96 | 1017.9 |
| 20260902054015 | 73 | 346 | 0.0 | 1.7 | 0.00 | 0.00 | 0.00 | 96 | 1017.9 |
| 20260902053509 | 73 | 346 | 0.9 | 2.6 | 0.00 | 0.00 | 0.00 | 95 | 1017.9 |
| 20260902053031 | 73 | 346 | 0.9 | 2.6 | 0.00 | 0.00 | 0.00 | 95 | 1017.9 |
| 20260902052515 | 73 | 346 | 0.9 | 1.7 | 0.00 | 0.00 | 0.00 | 95 | 1017.8 |
| 20260902052012 | 73 | 346 | 0.0 | 1.7 | 0.00 | 0.00 | 0.00 | 95 | 1017.8 |
| 20260902051527 | 73 | 346 | 0.0 | 2.6 | 0.00 | 0.00 | 0.00 | 95 | 1017.7 |
| 20260902051008 | 73 | 346 | 0.0 | 2.6 | 0.00 | 0.00 | 0.00 | 95 | 1017.7 |
| 20260902050506 | 73 | 346 | 0.0 | 2.6 | 0.00 | 0.00 | 0.00 | 95 | 1017.6 |
| 20260902050033 | 73 | 340 | 0.0 | 2.6 | 0.00 | 0.00 | 0.00 | 95 | 1017.5 |
| 20260902045512 | 73 | 350 | 0.0 | 2.6 | 0.00 | 0.00 | 0.00 | 95 | 1017.7 |
| 20260902045012 | 73 | 350 | 0.0 | 2.6 | 0.00 | 0.00 | 0.00 | 95 | 1017.7 |
| 20260902044530 | 73 | 350 | 0.9 | 1.7 | 0.00 | 0.00 | 0.00 | 95 | 1017.5 |
| 20260902044010 | 73 | 350 | 0.0 | 1.7 | 0.00 | 0.00 | 0.00 | 95 | 1017.7 |
| 20260902043515 | 73 | 350 | 0.0 | 2.6 | 0.00 | 0.00 | 0.00 | 95 | 1017.6 |
| 20260902043029 | 73 | 33 | 0.0 | 2.6 | 0.00 | 0.00 | 0.00 | 94 | 1017.7 |
| 20260902042508 | 73 | 33 | 0.0 | 1.7 | 0.00 | 0.00 | 0.00 | 94 | 1017.7 |
| 20260902042014 | 74 | 33 | 0.0 | 2.6 | 0.00 | 0.00 | 0.00 | 94 | 1017.7 |
| 20260902041529 | 74 | 33 | 0.0 | 3.5 | 0.00 | 0.00 | 0.00 | 94 | 1017.7 |
| 20260902041016 | 74 | 32 | 0.9 | 3.5 | 0.00 | 0.00 | 0.00 | 94 | 1017.7 |
| 20260902040512 | 74 | 41 | 0.9 | 3.5 | 0.00 | 0.00 | 0.00 | 94 | 1017.5 |
| 20260902040029 | 74 | 66 | 0.9 | 2.6 | 0.00 | 0.00 | 0.00 | 94 | 1017.6 |
| 20260902035516 | 74 | 45 | 0.9 | 3.5 | 0.00 | 0.00 | 0.00 | 94 | 1017.8 |
| 20260902035010 | 74 | 19 | 1.7 | 3.5 | 0.00 | 0.00 | 0.00 | 94 | 1017.8 |
| 20260902034526 | 74 | 41 | 1.7 | 3.5 | 0.00 | 0.00 | 0.00 | 94 | 1017.7 |
| 20260902034013 | 74 | 19 | 0.9 | 2.6 | 0.00 | 0.00 | 0.00 | 94 | 1017.7 |
| 20260902033514 | 74 | 19 | 1.7 | 2.6 | 0.00 | 0.00 | 0.00 | 94 | 1017.7 |
| 20260902033026 | 74 | 19 | 0.9 | 2.6 | 0.00 | 0.00 | 0.00 | 93 | 1017.7 |
| 20260902032516 | 74 | 19 | 0.0 | 1.7 | 0.00 | 0.00 | 0.00 | 93 | 1017.6 |
| 20260902032020 | 74 | 19 | 0.9 | 2.6 | 0.00 | 0.00 | 0.00 | 93 | 1017.6 |
| 20260902031532 | 74 | 19 | 0.0 | 2.6 | 0.00 | 0.00 | 0.00 | 93 | 1017.7 |
| 20260902031012 | 74 | 19 | 0.0 | 2.6 | 0.00 | 0.00 | 0.00 | 93 | 1017.6 |
| 20260902030516 | 75 | 19 | 0.9 | 2.6 | 0.00 | 0.00 | 0.00 | 93 | 1017.6 |
| 20260902030032 | 75 | 19 | 0.9 | 2.6 | 0.00 | 0.00 | 0.00 | 93 | 1017.6 |
| 20260902025512 | 75 | 19 | 0.9 | 2.6 | 0.00 | 0.00 | 0.00 | 93 | 1017.7 |
| 20260902025014 | 75 | 19 | 0.0 | 2.6 | 0.00 | 0.00 | 0.00 | 93 | 1017.6 |
| 20260902024539 | 75 | 19 | 0.0 | 1.7 | 0.00 | 0.00 | 0.00 | 92 | 1017.6 |
| 20260902024018 | 75 | 19 | 0.0 | 1.7 | 0.00 | 0.00 | 0.00 | 92 | 1017.5 |
| 20260902023513 | 75 | 19 | 0.0 | 1.7 | 0.00 | 0.00 | 0.00 | 92 | 1017.5 |
| 20260902023027 | 75 | 19 | 0.0 | 1.7 | 0.00 | 0.00 | 0.00 | 92 | 1017.4 |
| 20260902022514 | 75 | 19 | 0.0 | 1.7 | 0.00 | 0.00 | 0.00 | 92 | 1017.2 |
| 20260902022015 | 75 | 19 | 0.0 | 1.7 | 0.00 | 0.00 | 0.00 | 91 | 1017.2 |
| 20260902021543 | 75 | 19 | 0.0 | 1.7 | 0.00 | 0.00 | 0.00 | 91 | 1017.2 |
| 20260902021016 | 75 | 19 | 0.0 | 1.7 | 0.00 | 0.00 | 0.00 | 91 | 1017.2 |
| 20260902020517 | 75 | 19 | 0.0 | 1.7 | 0.00 | 0.00 | 0.00 | 91 | 1017.1 |
| 20260902020032 | 75 | 19 | 0.9 | 2.6 | 0.00 | 0.00 | 0.00 | 91 | 1017.1 |
| 20260902015518 | 75 | 19 | 0.0 | 2.6 | 0.00 | 0.00 | 0.00 | 91 | 1017.1 |
| 20260902015021 | 75 | 19 | 0.9 | 1.7 | 0.00 | 0.00 | 0.00 | 90 | 1017.1 |
| 20260902014538 | 76 | 19 | 0.0 | 1.7 | 0.00 | 0.00 | 0.00 | 90 | 1017.1 |
| 20260902014013 | 76 | 19 | 0.0 | 1.7 | 0.00 | 0.00 | 0.00 | 90 | 1017.1 |
| 20260902013519 | 76 | 19 | 0.0 | 1.7 | 0.00 | 0.00 | 0.00 | 89 | 1017.2 |
| 20260902013034 | 76 | 19 | 0.0 | 1.7 | 0.00 | 0.00 | 0.00 | 89 | 1017.2 |
| 20260902012519 | 76 | 107 | 0.0 | 0.0 | 0.00 | 0.00 | 0.00 | 89 | 1017.1 |
| 20260902012014 | 76 | 107 | 0.0 | 0.0 | 0.00 | 0.00 | 0.00 | 88 | 1017.1 |
| 20260902011527 | 76 | 106 | 0.0 | 0.9 | 0.00 | 0.00 | 0.00 | 88 | 1017.0 |
| 20260902011003 | 76 | 107 | 0.0 | 0.9 | 0.00 | 0.00 | 0.00 | 88 | 1017.1 |
| 20260902010502 | 77 | 107 | 0.0 | 0.9 | 0.00 | 0.00 | 0.00 | 87 | 1017.0 |
| 20260902010015 | 77 | 106 | 0.0 | 0.0 | 0.00 | 0.00 | 0.00 | 87 | 1017.0 |
| 20260902005504 | 77 | 106 | 0.0 | 0.0 | 0.00 | 0.00 | 0.00 | 87 | 1017.0 |
| 20260902005006 | 77 | 106 | 0.0 | 0.9 | 0.00 | 0.00 | 0.00 | 86 | 1016.9 |
| 20260902004509 | 77 | 106 | 0.0 | 0.9 | 0.00 | 0.00 | 0.00 | 86 | 1016.7 |
| 20260902004006 | 78 | 106 | 0.0 | 0.9 | 0.00 | 0.00 | 0.00 | 86 | 1016.6 |
| 20260902003508 | 78 | 106 | 0.0 | 0.9 | 0.00 | 0.00 | 0.00 | 85 | 1016.5 |
| 20260902003006 | 78 | 107 | 0.0 | 1.7 | 0.00 | 0.00 | 0.00 | 85 | 1016.4 |
| 20260902002504 | 78 | 107 | 0.0 | 1.7 | 0.00 | 0.00 | 0.00 | 84 | 1016.5 |
| 20260902002007 | 78 | 107 | 0.0 | 2.6 | 0.00 | 0.00 | 0.00 | 84 | 1016.7 |
| 20260902001525 | 79 | 107 | 0.9 | 6.1 | 0.00 | 0.00 | 0.00 | 84 | 1016.7 |
| 20260902001002 | 79 | 111 | 1.7 | 6.1 | 0.00 | 0.00 | 0.00 | 83 | 1016.5 |
| 20260902000504 | 79 | 115 | 0.9 | 4.3 | 0.00 | 0.00 | 0.00 | 83 | 1016.6 |
| 20260902000009 | 79 | 73 | 0.9 | 7.0 | 0.00 | 0.00 | 0.00 | 83 | 1016.7 |
| 20260901235504 | 79 | 78 | 1.7 | 7.0 | 0.00 | 0.00 | 0.00 | 82 | 1016.7 |
| 20260901235004 | 79 | 51 | 1.7 | 7.0 | 0.00 | 0.00 | 0.00 | 82 | 1016.8 |
| 20260901234511 | 80 | 105 | 3.5 | 7.0 | 0.00 | 0.00 | 0.00 | 82 | 1016.9 |
| 20260901234007 | 80 | 105 | 2.6 | 7.0 | 0.00 | 0.00 | 0.00 | 82 | 1017.0 |
| 20260901233504 | 80 | 77 | 1.7 | 7.0 | 0.00 | 0.00 | 0.00 | 81 | 1017.0 |
| 20260901233011 | 80 | 94 | 0.9 | 4.3 | 0.00 | 0.00 | 0.00 | 81 | 1017.1 |
| 20260901232508 | 80 | 104 | 1.7 | 4.3 | 0.00 | 0.00 | 0.00 | 81 | 1017.1 |
| 20260901232008 | 80 | 84 | 1.7 | 3.5 | 0.00 | 0.00 | 0.00 | 80 | 1017.2 |
| 20260901231505 | 80 | 97 | 0.9 | 4.3 | 0.00 | 0.00 | 0.00 | 80 | 1017.2 |
| 20260901231006 | 81 | 94 | 1.7 | 8.7 | 0.00 | 0.00 | 0.00 | 80 | 1017.3 |
| 20260901230510 | 81 | 78 | 1.7 | 8.7 | 0.00 | 0.00 | 0.00 | 79 | 1017.3 |
| 20260901230005 | 81 | 96 | 3.5 | 8.7 | 0.00 | 0.00 | 0.00 | 79 | 1017.4 |
| 20260901225504 | 81 | 107 | 2.6 | 8.7 | 0.00 | 0.00 | 0.00 | 78 | 1017.5 |
| 20260901225004 | 81 | 59 | 3.5 | 8.7 | 0.00 | 0.00 | 0.00 | 78 | 1017.5 |
| 20260901224505 | 82 | 90 | 2.6 | 9.6 | 0.00 | 0.00 | 0.00 | 78 | 1017.5 |
| 20260901224003 | 82 | 115 | 3.5 | 9.6 | 0.00 | 0.00 | 0.00 | 77 | 1017.6 |
| 20260901223504 | 82 | 64 | 3.5 | 8.7 | 0.00 | 0.00 | 0.00 | 77 | 1017.5 |
| 20260901223013 | 82 | 96 | 3.5 | 9.6 | 0.00 | 0.00 | 0.00 | 76 | 1017.6 |
| 20260901222504 | 83 | 79 | 5.2 | 9.6 | 0.00 | 0.00 | 0.00 | 75 | 1017.6 |
| 20260901222004 | 83 | 95 | 5.2 | 9.6 | 0.00 | 0.00 | 0.00 | 75 | 1017.7 |
| 20260901221515 | 84 | 107 | 4.3 | 9.6 | 0.00 | 0.00 | 0.00 | 74 | 1017.7 |
| 20260901221008 | 84 | 86 | 4.3 | 8.7 | 0.00 | 0.00 | 0.00 | 73 | 1017.7 |
| 20260901220504 | 84 | 85 | 3.5 | 9.6 | 0.00 | 0.00 | 0.00 | 73 | 1017.7 |
| 20260901220012 | 85 | 111 | 5.2 | 9.6 | 0.00 | 0.00 | 0.00 | 72 | 1017.6 |
| 20260901215510 | 85 | 46 | 4.3 | 9.6 | 0.00 | 0.00 | 0.00 | 71 | 1017.6 |
| 20260901215016 | 85 | 62 | 2.6 | 9.6 | 0.00 | 0.00 | 0.00 | 72 | 1017.6 |
| 20260901214517 | 86 | 98 | 4.3 | 11.3 | 0.00 | 0.00 | 0.00 | 71 | 1017.6 |
| 20260901214008 | 86 | 103 | 5.2 | 13.9 | 0.00 | 0.00 | 0.00 | 71 | 1017.6 |
| 20260901213505 | 86 | 101 | 7.0 | 13.9 | 0.00 | 0.00 | 0.00 | 70 | 1017.5 |
| 20260901213009 | 86 | 92 | 4.3 | 10.4 | 0.00 | 0.00 | 0.00 | 71 | 1017.7 |
| 20260901212506 | 86 | 107 | 6.1 | 10.4 | 0.00 | 0.00 | 0.00 | 70 | 1017.7 |
| 20260901212006 | 86 | 81 | 3.5 | 14.8 | 0.00 | 0.00 | 0.00 | 70 | 1017.5 |
| 20260901211512 | 86 | 90 | 7.8 | 14.8 | 0.00 | 0.00 | 0.00 | 69 | 1017.6 |
| 20260901211005 | 86 | 65 | 4.3 | 12.2 | 0.00 | 0.00 | 0.00 | 70 | 1017.7 |
| 20260901210508 | 86 | 90 | 6.1 | 11.3 | 0.00 | 0.00 | 0.00 | 71 | 1017.7 |
| 20260901210023 | 86 | 110 | 6.1 | 10.4 | 0.00 | 0.00 | 0.00 | 71 | 1017.8 |
| 20260901205512 | 86 | 134 | 5.2 | 11.3 | 0.00 | 0.00 | 0.00 | 72 | 1017.5 |
| 20260901205007 | 85 | 122 | 5.2 | 11.3 | 0.00 | 0.00 | 0.00 | 73 | 1017.6 |
| 20260901204528 | 84 | 121 | 4.3 | 11.3 | 0.00 | 0.00 | 0.00 | 76 | 1017.6 |
| 20260901204017 | 83 | 75 | 5.2 | 13.0 | 0.00 | 0.00 | 0.00 | 75 | 1017.7 |
| 20260901203517 | 83 | 85 | 7.0 | 13.0 | 0.00 | 0.00 | 0.00 | 75 | 1017.8 |
| 20260901203015 | 83 | 68 | 2.6 | 10.4 | 0.00 | 0.00 | 0.00 | 77 | 1017.8 |
| 20260901202507 | 83 | 134 | 4.3 | 11.3 | 0.00 | 0.00 | 0.00 | 76 | 1017.8 |
| 20260901202004 | 83 | 90 | 6.1 | 13.0 | 0.00 | 0.00 | 0.00 | 75 | 1017.7 |
| 20260901201510 | 84 | 99 | 7.0 | 13.0 | 0.00 | 0.00 | 0.00 | 74 | 1017.7 |
| 20260901201004 | 84 | 98 | 4.3 | 10.4 | 0.00 | 0.00 | 0.00 | 75 | 1017.6 |
| 20260901200508 | 84 | 44 | 4.3 | 11.3 | 0.00 | 0.00 | 0.00 | 75 | 1017.7 |
| 20260901200030 | 85 | 63 | 7.8 | 14.8 | 0.00 | 0.00 | 0.00 | 73 | 1017.4 |
| 20260901195508 | 85 | 117 | 5.2 | 14.8 | 0.00 | 0.00 | 0.00 | 73 | 1017.4 |
| 20260901195012 | 86 | 28 | 7.8 | 13.0 | 0.00 | 0.00 | 0.00 | 72 | 1017.4 |
| 20260901194524 | 86 | 35 | 6.1 | 13.0 | 0.00 | 0.00 | 0.00 | 74 | 1017.4 |
| 20260901194014 | 86 | 40 | 6.1 | 15.6 | 0.00 | 0.00 | 0.00 | 73 | 1017.5 |
| 20260901193506 | 86 | 91 | 7.8 | 15.6 | 0.00 | 0.00 | 0.00 | 72 | 1017.5 |
| 20260901193025 | 86 | 57 | 7.8 | 13.9 | 0.00 | 0.00 | 0.00 | 73 | 1017.5 |
| 20260901192514 | 86 | 82 | 7.8 | 13.9 | 0.00 | 0.00 | 0.00 | 72 | 1017.4 |
| 20260901192007 | 86 | 74 | 5.2 | 11.3 | 0.00 | 0.00 | 0.00 | 73 | 1017.4 |
| 20260901191530 | 86 | 119 | 7.0 | 11.3 | 0.00 | 0.00 | 0.00 | 73 | 1017.4 |
| 20260901191014 | 86 | 124 | 5.2 | 11.3 | 0.00 | 0.00 | 0.00 | 74 | 1017.4 |
| 20260901190502 | 85 | 78 | 4.3 | 12.2 | 0.00 | 0.00 | 0.00 | 73 | 1017.4 |
| 20260901190014 | 85 | 45 | 4.3 | 12.2 | 0.00 | 0.00 | 0.00 | 72 | 1017.4 |
| 20260901185504 | 85 | 78 | 3.5 | 10.4 | 0.00 | 0.00 | 0.00 | 72 | 1017.4 |
| 20260901185002 | 85 | 65 | 4.3 | 11.3 | 0.00 | 0.00 | 0.00 | 74 | 1017.3 |
| 20260901184504 | 85 | 47 | 5.2 | 11.3 | 0.00 | 0.00 | 0.00 | 74 | 1017.5 |
| 20260901184003 | 85 | 5 | 3.5 | 10.4 | 0.00 | 0.00 | 0.00 | 75 | 1017.5 |
| 20260901183502 | 84 | 48 | 5.2 | 10.4 | 0.00 | 0.00 | 0.00 | 73 | 1017.7 |
| 20260901183005 | 85 | 87 | 5.2 | 10.4 | 0.00 | 0.00 | 0.00 | 74 | 1017.6 |
| 20260901182504 | 84 | 63 | 5.2 | 11.3 | 0.00 | 0.00 | 0.00 | 76 | 1017.7 |
| 20260901182003 | 83 | 92 | 3.5 | 13.9 | 0.00 | 0.00 | 0.00 | 76 | 1017.7 |
| 20260901181506 | 84 | 59 | 6.1 | 13.9 | 0.00 | 0.00 | 0.00 | 74 | 1017.8 |
| 20260901181004 | 84 | 61 | 6.1 | 13.0 | 0.00 | 0.00 | 0.00 | 74 | 1017.8 |
| 20260901180505 | 84 | 46 | 3.5 | 9.6 | 0.00 | 0.00 | 0.00 | 76 | 1017.8 |
| 20260901180004 | 84 | 67 | 5.2 | 9.6 | 0.00 | 0.00 | 0.00 | 76 | 1017.9 |
| 20260901175503 | 84 | 23 | 5.2 | 12.2 | 0.00 | 0.00 | 0.00 | 76 | 1017.9 |
| 20260901175008 | 84 | 84 | 6.1 | 12.2 | 0.00 | 0.00 | 0.00 | 74 | 1017.8 |
| 20260901174504 | 85 | 62 | 5.2 | 14.8 | 0.00 | 0.00 | 0.00 | 74 | 1017.9 |
| 20260901174004 | 85 | 101 | 7.8 | 14.8 | 0.00 | 0.00 | 0.00 | 74 | 1017.9 |
| 20260901173505 | 85 | 47 | 8.7 | 13.0 | 0.00 | 0.00 | 0.00 | 75 | 1018.0 |
| 20260901173019 | 84 | 44 | 6.1 | 11.3 | 0.00 | 0.00 | 0.00 | 76 | 1018.1 |
| 20260901172503 | 84 | 60 | 6.1 | 12.2 | 0.00 | 0.00 | 0.00 | 74 | 1018.1 |
| 20260901172004 | 84 | 84 | 7.0 | 12.2 | 0.00 | 0.00 | 0.00 | 75 | 1018.1 |
| 20260901171504 | 84 | 114 | 7.0 | 12.2 | 0.00 | 0.00 | 0.00 | 75 | 1018.2 |
| 20260901171005 | 84 | 121 | 6.1 | 10.4 | 0.00 | 0.00 | 0.00 | 76 | 1018.1 |
| 20260901170503 | 84 | 118 | 4.3 | 12.2 | 0.00 | 0.00 | 0.00 | 75 | 1018.2 |
| 20260901170010 | 84 | 100 | 5.2 | 13.9 | 0.00 | 0.00 | 0.00 | 74 | 1018.3 |
| 20260901165502 | 85 | 30 | 6.1 | 13.9 | 0.00 | 0.00 | 0.00 | 73 | 1018.2 |
| 20260901165002 | 85 | 87 | 7.8 | 13.0 | 0.00 | 0.00 | 0.00 | 73 | 1018.3 |
| 20260901164509 | 85 | 109 | 7.8 | 15.6 | 0.00 | 0.00 | 0.00 | 73 | 1018.4 |
| 20260901164009 | 85 | 76 | 8.7 | 15.6 | 0.00 | 0.00 | 0.00 | 72 | 1018.4 |
| 20260901163509 | 85 | 49 | 6.1 | 14.8 | 0.00 | 0.00 | 0.00 | 75 | 1018.4 |
| 20260901163003 | 85 | 59 | 7.8 | 17.4 | 0.00 | 0.00 | 0.00 | 73 | 1018.5 |
| 20260901162506 | 85 | 69 | 9.6 | 17.4 | 0.00 | 0.00 | 0.00 | 72 | 1018.4 |
| 20260901162008 | 85 | 133 | 7.8 | 13.9 | 0.00 | 0.00 | 0.00 | 73 | 1018.4 |
| 20260901161524 | 86 | 115 | 7.0 | 14.8 | 0.00 | 0.00 | 0.00 | 71 | 1018.3 |
| 20260901161003 | 86 | 157 | 7.8 | 15.6 | 0.00 | 0.00 | 0.00 | 72 | 1018.2 |
| 20260901160504 | 87 | 82 | 7.0 | 15.6 | 0.00 | 0.00 | 0.00 | 70 | 1018.1 |
| 20260901160010 | 87 | 71 | 7.0 | 14.8 | 0.00 | 0.00 | 0.00 | 71 | 1018.2 |
| 20260901155503 | 87 | 115 | 6.1 | 14.8 | 0.00 | 0.00 | 0.00 | 70 | 1018.1 |
| 20260901155004 | 86 | 98 | 7.0 | 13.9 | 0.00 | 0.00 | 0.00 | 71 | 1018.0 |
| 20260901154507 | 86 | 116 | 6.1 | 13.0 | 0.00 | 0.00 | 0.00 | 71 | 1018.0 |
| 20260901154003 | 86 | 136 | 4.3 | 13.0 | 0.00 | 0.00 | 0.00 | 72 | 1017.9 |
| 20260901153506 | 86 | 44 | 7.0 | 14.8 | 0.00 | 0.00 | 0.00 | 73 | 1017.9 |
| 20260901153020 | 86 | 63 | 6.1 | 15.6 | 0.00 | 0.00 | 0.00 | 73 | 1017.8 |
| 20260901152509 | 86 | 84 | 7.8 | 15.6 | 0.00 | 0.00 | 0.00 | 71 | 1017.8 |
| 20260901152008 | 86 | 99 | 7.0 | 14.8 | 0.00 | 0.00 | 0.00 | 71 | 1017.9 |
| 20260901151511 | 86 | 91 | 3.5 | 10.4 | 0.00 | 0.00 | 0.00 | 73 | 1017.9 |
| 20260901151009 | 85 | 94 | 5.2 | 10.4 | 0.00 | 0.00 | 0.00 | 72 | 1017.7 |
| 20260901150511 | 85 | 101 | 4.3 | 20.0 | 0.00 | 0.00 | 0.00 | 72 | 1017.6 |
| 20260901150007 | 84 | 147 | 7.8 | 20.0 | 0.00 | 0.00 | 0.00 | 72 | 1017.7 |
| 20260901145503 | 84 | 113 | 7.8 | 15.6 | 0.00 | 0.00 | 0.00 | 72 | 1017.9 |
| 20260901145003 | 84 | 65 | 8.7 | 15.6 | 0.00 | 0.00 | 0.00 | 72 | 1017.8 |
| 20260901144507 | 84 | 47 | 7.8 | 13.9 | 0.00 | 0.00 | 0.00 | 73 | 1017.8 |
| 20260901144005 | 84 | 51 | 5.2 | 11.3 | 0.00 | 0.00 | 0.00 | 74 | 1017.7 |
| 20260901143503 | 83 | 84 | 5.2 | 12.2 | 0.00 | 0.00 | 0.00 | 74 | 1017.8 |
| 20260901143014 | 83 | 117 | 3.5 | 13.9 | 0.00 | 0.00 | 0.00 | 76 | 1017.8 |
| 20260901142507 | 83 | 105 | 4.3 | 13.9 | 0.00 | 0.00 | 0.00 | 76 | 1018.0 |
| 20260901142010 | 83 | 79 | 8.7 | 14.8 | 0.00 | 0.00 | 0.00 | 75 | 1018.0 |
| 20260901141518 | 82 | 72 | 7.8 | 15.6 | 0.00 | 0.00 | 0.00 | 75 | 1017.9 |
| 20260901141012 | 83 | 145 | 7.8 | 15.6 | 0.00 | 0.00 | 0.00 | 74 | 1017.8 |
| 20260901140505 | 83 | 92 | 4.3 | 12.2 | 0.00 | 0.00 | 0.00 | 76 | 1017.6 |
| 20260901140016 | 83 | 79 | 4.3 | 9.6 | 0.00 | 0.00 | 0.00 | 76 | 1017.6 |
| 20260901135509 | 82 | 139 | 4.3 | 12.2 | 0.00 | 0.00 | 0.00 | 76 | 1017.5 |
| 20260901135014 | 82 | 113 | 2.6 | 12.2 | 0.00 | 0.00 | 0.00 | 77 | 1017.6 |
| 20260901134513 | 82 | 80 | 7.0 | 12.2 | 0.00 | 0.00 | 0.00 | 78 | 1017.6 |
| 20260901134007 | 81 | 111 | 3.5 | 7.8 | 0.00 | 0.00 | 0.00 | 80 | 1017.7 |
| 20260901133513 | 81 | 123 | 2.6 | 7.0 | 0.00 | 0.00 | 0.00 | 79 | 1017.7 |
| 20260901133013 | 80 | 105 | 2.6 | 10.4 | 0.00 | 0.00 | 0.00 | 81 | 1017.7 |
| 20260901132507 | 80 | 46 | 5.2 | 11.3 | 0.00 | 0.00 | 0.00 | 81 | 1017.8 |
| 20260901132004 | 79 | 119 | 5.2 | 11.3 | 0.00 | 0.00 | 0.00 | 82 | 1017.9 |
| 20260901131516 | 78 | 88 | 3.5 | 9.6 | 0.00 | 0.00 | 0.00 | 84 | 1017.8 |
| 20260901131004 | 78 | 110 | 5.2 | 9.6 | 0.00 | 0.00 | 0.00 | 84 | 1017.8 |
| 20260901130510 | 78 | 92 | 4.3 | 7.8 | 0.00 | 0.00 | 0.00 | 84 | 1017.9 |
| 20260901130025 | 77 | 94 | 4.3 | 9.6 | 0.00 | 0.00 | 0.00 | 84 | 1017.9 |
| 20260901125516 | 77 | 65 | 3.5 | 9.6 | 0.00 | 0.00 | 0.00 | 84 | 1017.9 |
| 20260901125007 | 77 | 96 | 4.3 | 8.7 | 0.00 | 0.00 | 0.00 | 85 | 1018.0 |
| 20260901124528 | 77 | 92 | 4.3 | 8.7 | 0.00 | 0.00 | 0.00 | 86 | 1018.0 |
| 20260901124014 | 76 | 76 | 4.3 | 8.7 | 0.00 | 0.00 | 0.00 | 86 | 1018.0 |
| 20260901123520 | 76 | 88 | 3.5 | 9.6 | 0.00 | 0.00 | 0.00 | 86 | 1018.0 |
| 20260901123021 | 76 | 84 | 5.2 | 9.6 | 0.00 | 0.00 | 0.00 | 86 | 1018.0 |
| 20260901122515 | 76 | 94 | 4.3 | 10.4 | 0.00 | 0.00 | 0.00 | 87 | 1018.0 |
| 20260901122015 | 75 | 62 | 6.1 | 10.4 | 0.00 | 0.00 | 0.00 | 87 | 1017.9 |
| 20260901121511 | 75 | 102 | 2.6 | 7.8 | 0.00 | 0.00 | 0.00 | 87 | 1018.0 |
| 20260901121006 | 75 | 92 | 4.3 | 7.8 | 0.00 | 0.00 | 0.00 | 87 | 1017.9 |
| 20260901120507 | 75 | 67 | 2.6 | 7.0 | 0.00 | 0.00 | 0.00 | 88 | 1018.0 |
| 20260901120015 | 75 | 93 | 4.3 | 7.0 | 0.00 | 0.00 | 0.00 | 88 | 1018.0 |
| 20260901115507 | 74 | 78 | 3.5 | 7.0 | 0.00 | 0.00 | 0.00 | 89 | 1018.0 |
| 20260901115010 | 74 | 102 | 3.5 | 7.0 | 0.00 | 0.00 | 0.00 | 89 | 1017.9 |
| 20260901114532 | 74 | 93 | 3.5 | 6.1 | 0.00 | 0.00 | 0.00 | 89 | 1017.9 |
| 20260901114013 | 74 | 136 | 1.7 | 8.7 | 0.00 | 0.00 | 0.00 | 89 | 1017.9 |